TimeMSK,TemperatureF,Dew PointF,Humidity,Sea Level PressureIn,VisibilityMPH,Wind Direction,Wind SpeedMPH,Gust SpeedMPH,PrecipitationIn,Events,Conditions,WindDirDegrees,DateUTC
12:00 AM,41.0,35.6,81,29.86,6.2,South,6.7,-,N/A,,Mostly Cloudy,190,2013-01-17 20:00:00
12:30 AM,41.0,37.4,87,29.89,6.2,South,6.7,-,N/A,,Mostly Cloudy,190,2013-01-17 20:30:00
1:00 AM,42.8,37.4,81,29.89,6.2,South,8.9,-,N/A,,Mostly Cloudy,190,2013-01-17 21:00:00
1:30 AM,41.0,37.4,87,29.89,6.2,SSW,11.2,17.9,N/A,,Mostly Cloudy,200,2013-01-17 21:30:00
2:00 AM,41.0,37.4,87,29.89,6.2,SSW,11.2,17.9,N/A,,Mostly Cloudy,200,2013-01-17 22:00:00
2:30 AM,42.8,37.4,81,29.89,6.2,South,13.4,-,N/A,,Mostly Cloudy,190,2013-01-17 22:30:00
3:00 AM,42.8,37.4,81,29.89,6.2,South,13.4,-,N/A,,Mostly Cloudy,190,2013-01-17 23:00:00
3:30 AM,41.0,37.4,87,29.89,6.2,South,11.2,-,N/A,,Mostly Cloudy,180,2013-01-17 23:30:00
4:00 AM,41.0,37.4,87,29.89,-9999.0,South,11.2,-,N/A,,Clear,170,2013-01-18 00:00:00
4:30 AM,41.0,37.4,87,29.89,-9999.0,South,11.2,-,N/A,,Clear,170,2013-01-18 00:30:00
5:00 AM,41.0,37.4,87,29.89,-9999.0,South,13.4,20.1,N/A,,Clear,190,2013-01-18 01:00:00
5:30 AM,41.0,37.4,87,29.92,-9999.0,SSW,11.2,-,N/A,,Clear,200,2013-01-18 01:30:00
6:00 AM,42.8,37.4,81,29.89,-9999.0,SW,8.9,-,N/A,,Clear,220,2013-01-18 02:00:00
6:30 AM,42.8,37.4,81,29.89,-9999.0,SW,6.7,-,N/A,,Clear,220,2013-01-18 02:30:00
7:00 AM,41.0,37.4,87,29.92,-9999.0,SSW,6.7,-,N/A,,Clear,200,2013-01-18 03:00:00
7:30 AM,41.0,37.4,87,29.92,-9999.0,SSW,8.9,-,N/A,,Clear,200,2013-01-18 03:30:00
8:00 AM,41.0,35.6,81,29.92,-9999.0,South,6.7,-,N/A,,Clear,190,2013-01-18 04:00:00
8:30 AM,41.0,37.4,87,29.92,-9999.0,SSW,4.5,-,N/A,,Clear,200,2013-01-18 04:30:00
9:00 AM,42.8,37.4,81,29.92,-9999.0,Variable,2.2,-,N/A,,Clear,0,2013-01-18 05:00:00
9:30 AM,37.4,33.8,87,29.95,-9999.0,SSE,4.5,-,N/A,,Clear,160,2013-01-18 05:30:00
10:00 AM,41.0,37.4,87,29.95,-9999.0,SSW,6.7,-,N/A,,Clear,200,2013-01-18 06:00:00
10:30 AM,44.6,39.2,81,29.95,-9999.0,South,6.7,-,N/A,,Clear,190,2013-01-18 06:30:00
11:00 AM,48.2,39.2,71,29.95,-9999.0,SSW,6.7,-,N/A,,Clear,200,2013-01-18 07:00:00
11:30 AM,51.8,39.2,62,29.95,-9999.0,SSW,8.9,-,N/A,,Clear,210,2013-01-18 07:30:00
12:00 PM,53.6,39.2,58,29.92,-9999.0,SSW,8.9,-,N/A,,Clear,200,2013-01-18 08:00:00
12:30 PM,55.4,37.4,51,29.92,-9999.0,SSW,8.9,15.7,N/A,,Clear,210,2013-01-18 08:30:00
1:00 PM,57.2,35.6,44,29.92,-9999.0,SSW,11.2,-,N/A,,Clear,200,2013-01-18 09:00:00
1:30 PM,59.0,35.6,42,29.92,-9999.0,SW,17.9,24.6,N/A,,Clear,220,2013-01-18 09:30:00
2:00 PM,59.0,35.6,42,29.89,-9999.0,SW,15.7,22.4,N/A,,Clear,220,2013-01-18 10:00:00
2:30 PM,57.2,35.6,44,29.89,-9999.0,SW,11.2,17.9,N/A,,Clear,220,2013-01-18 10:30:00
3:00 PM,57.2,33.8,41,29.89,-9999.0,SW,11.2,17.9,N/A,,Clear,220,2013-01-18 11:00:00
3:30 PM,55.4,33.8,44,29.89,-9999.0,SSW,11.2,17.9,N/A,,Clear,210,2013-01-18 11:30:00
4:00 PM,57.2,35.6,44,29.89,-9999.0,SW,6.7,-,N/A,,Clear,220,2013-01-18 12:00:00
4:30 PM,57.2,35.6,44,29.89,-9999.0,SW,6.7,-,N/A,,Clear,230,2013-01-18 12:30:00
5:00 PM,55.4,35.6,47,29.86,-9999.0,South,4.5,-,N/A,,Clear,180,2013-01-18 13:00:00
5:30 PM,51.8,35.6,54,29.86,-9999.0,Variable,2.2,-,N/A,,Clear,0,2013-01-18 13:30:00
6:00 PM,50.0,37.4,62,29.86,-9999.0,Variable,2.2,-,N/A,,Clear,0,2013-01-18 14:00:00
6:30 PM,48.2,37.4,66,29.86,-9999.0,ESE,4.5,-,N/A,,Clear,110,2013-01-18 14:30:00
7:00 PM,48.2,39.2,71,29.86,-9999.0,East,6.7,-,N/A,,Clear,80,2013-01-18 15:00:00
7:30 PM,50.0,37.4,62,29.86,-9999.0,ENE,8.9,-,N/A,,Clear,70,2013-01-18 15:30:00
8:00 PM,50.0,35.6,58,29.86,-9999.0,East,8.9,-,N/A,,Clear,80,2013-01-18 16:00:00
8:30 PM,50.0,35.6,58,29.86,-9999.0,ENE,6.7,-,N/A,,Clear,70,2013-01-18 16:30:00
9:00 PM,46.4,35.6,66,29.86,-9999.0,East,8.9,-,N/A,,Clear,90,2013-01-18 17:00:00
9:30 PM,46.4,37.4,71,29.86,-9999.0,East,8.9,-,N/A,,Clear,100,2013-01-18 17:30:00
10:00 PM,44.6,35.6,71,29.86,-9999.0,East,8.9,-,N/A,,Clear,100,2013-01-18 18:00:00
10:30 PM,44.6,35.6,71,29.86,-9999.0,East,6.7,-,N/A,,Clear,90,2013-01-18 18:30:00
11:00 PM,42.8,35.6,76,29.86,-9999.0,Variable,2.2,-,N/A,,Clear,0,2013-01-18 19:00:00
11:30 PM,42.8,35.6,76,29.86,-9999.0,East,8.9,-,N/A,,Clear,90,2013-01-18 19:30:00